Notices

What's New in latest Release from April 7th, 2021:

- Updated Glossary, including Speed of Maximum Gust, and Total Hourly Precipitation

- Updated national and regional climate services offices contacts and prices information

- Addition of station inventory lists for 1981-2010, 1971-2000, and 1961-1990 Normals.

If you haven't already, please take our survey and provide feedback about our website: https://eccc.sondage-survey.ca/f/LanguageSelection.aspx?s=442ca660-fcf1-47c0-95a9-59707d6fd709

Hourly Data Report for April 30, 2017

MIRAMICHI RCS
NEW BRUNSWICK

47°00'34.000" N
65°27'54.000" W
33.00 m
8100989
71744
ACQ

Download Data

Hourly Data (April 2017)
Hourly Data Report for April 30, 2017
TIME
LST
Temp Definition
°C
Dew Point Definition
°C
Rel Hum Definition
%
Precip. Amount Definition
mm

Wind Dir Definition
10's deg

Wind Spd Definition
km/h
Visibility Definition
km
Stn Press Definition
kPa
Hmdx Definition


Wind Chill Definition


Weather Definition


00:00 5.2 -2.7 57 0.0 30 11   100.86     LegendNANA
01:00 4.6 -3.6 55 0.0 31 15   100.95     LegendNANA
02:00 3.8 -3.7 58 0.0 31 12   101.01     LegendNANA
03:00 3.0 -3.9 60 0.0 29 21   101.13     LegendNANA
04:00 2.4 -4.1 62 0.0 29 16   101.25     LegendNANA
05:00 1.7 -4.2 65 0.0 29 18   101.45     LegendNANA
06:00 2.2 -4.7 60 0.0 31 14   101.53     LegendNANA
07:00 3.7 -4.8 54 0.0 32 16   101.60     LegendNANA
08:00 5.1 -5.0 48 0.0 32 18   101.66     LegendNANA
09:00 6.4 -5.3 43 0.0 31 19   101.73     LegendNANA
10:00 8.1 -5.6 37 0.0 33 15   101.74     LegendNANA
11:00 9.3 -6.2 33 0.0 31 14   101.76     LegendNANA
12:00 10.5 -7.1 28 0.0 33 16   101.80     LegendNANA
13:00 12.1 -6.1 27 0.0 35 12   101.78     LegendNANA
14:00 12.2 -8.5 23 0.0 36 16   101.80     LegendNANA
15:00 12.9 -6.7 25 0.0 35 10   101.76     LegendNANA
16:00 13.1 -7.4 23 0.0 34 6   101.77     LegendNANA
17:00 13.1 -7.7 23 0.0 35 8   101.81     LegendNANA
18:00 12.8 -7.9 23 0.0 32 8   101.86     LegendNANA
19:00 11.2 -7.7 26 0.0 35 2   101.90     LegendNANA
20:00 8.7 -3.6 42 0.0 36 1   101.91     LegendNANA
21:00 6.4 -2.5 53 0.0 8 10   101.89     LegendNANA
22:00 5.3 -2.7 56 0.0 5 5   101.94     LegendNANA
23:00 4.5 -1.5 65 0.0 4 5   101.95     LegendNANA

Notes on Data Quality.

Legend

  • E = Estimated
  • M = Missing
  • NA = Not Available*
  • [empty] = Indicates an unobserved value
Date modified: